Theta_e
315 319 321 321 321 318 318 320 319 315 316 317 316 314 314 314 314 314 315 313 311 313 315 315 314 314 314 314 313 311 310 312 314 314 313 312 312 314 317 318 319 320 321 320 320 322 323 325 326 327 328 329 329 330 330 330 330 331 331 332 332 332 332 333 334 335 335 335 335 335 335 335 335 336 336 335 335 334 334 334 333 332 332 331 330 330
316 321 321 321 321 318 317 320 318 315 313 313 314 312 312 313 313 313 313 313 312 312 315 315 313 313 313 312 312 310 311 313 315 315 314 313 311 310 311 313 314 315 314 313 313 315 319 322 323 325 326 328 329 329 330 330 330 330 331 331 331 332 332 332 333 333 334 335 334 334 334 334 334 334 335 335 334 334 334 334 333 333 332 332 332 331
316 320 320 319 320 318 317 317 318 318 316 315 314 311 313 313 313 313 312 312 312 312 317 316 313 314 313 312 311 310 312 313 314 314 314 313 312 311 310 310 310 311 313 312 310 310 313 317 319 322 324 326 327 328 329 329 330 330 330 330 331 331 331 331 331 332 333 334 334 334 334 333 333 333 334 334 334 334 334 334 333 332 332 332 331 331
319 318 317 318 318 316 316 314 316 319 318 316 314 311 313 313 313 314 312 311 311 311 313 314 314 315 313 312 314 312 311 312 313 313 313 312 313 313 311 310 309 310 311 311 311 309 308 312 316 320 322 324 326 327 328 329 329 330 329 330 330 330 330 330 331 331 332 333 333 333 333 333 333 333 333 334 334 334 334 334 333 333 332 330 329 329
319 316 315 317 317 316 315 314 315 318 319 316 313 312 312 312 311 313 313 313 313 312 312 313 315 316 316 316 317 314 310 310 311 311 312 312 312 311 311 311 311 310 310 310 312 310 306 308 313 317 319 322 324 326 327 328 328 329 329 329 330 330 330 330 331 331 331 332 332 333 333 333 333 333 333 333 333 333 333 334 334 333 332 330 329 328
316 313 314 317 317 317 316 315 316 317 319 317 314 312 310 310 309 312 316 315 316 318 315 313 316 323 326 323 319 316 313 311 311 310 311 311 310 310 310 311 311 310 310 309 310 308 306 306 309 313 317 320 322 324 325 326 327 328 328 329 329 330 330 330 331 331 331 331 332 332 332 332 332 332 332 332 332 333 333 333 333 333 331 330 328 327
315 311 314 317 317 319 318 316 316 316 318 317 316 313 311 311 310 311 315 314 317 320 313 310 316 324 325 322 319 318 317 316 312 311 311 310 309 310 310 311 310 310 310 309 308 306 305 306 307 309 314 318 320 321 322 325 326 327 327 327 328 329 330 330 331 331 331 331 332 332 332 332 332 332 332 332 332 332 332 332 332 331 330 329 327 327
313 312 315 317 317 318 318 317 316 315 316 317 316 316 315 313 312 312 313 315 319 319 314 312 315 317 317 317 317 316 317 318 314 312 313 311 310 309 309 310 310 310 310 310 310 308 305 304 305 307 310 314 317 317 321 324 325 327 326 327 328 329 329 330 331 331 331 331 331 332 332 332 332 332 332 332 331 331 331 331 330 330 329 327 326 326
311 314 316 316 317 317 316 317 316 313 315 316 317 319 317 315 315 315 315 316 316 315 316 317 313 314 319 322 321 314 312 315 315 314 315 314 313 312 309 309 310 310 310 310 311 309 305 303 304 307 308 310 314 317 320 323 325 326 326 327 328 328 329 330 331 331 331 332 332 331 332 332 332 332 332 332 331 330 330 330 330 330 329 327 326 327
309 312 314 313 315 315 315 316 315 313 313 314 317 319 317 319 319 316 318 317 313 313 317 319 315 312 320 328 323 315 312 315 315 314 313 313 314 312 310 310 309 309 310 311 310 305 303 304 304 305 306 308 310 314 318 321 324 325 326 327 328 328 329 329 331 331 331 332 332 331 331 332 332 332 332 331 331 330 330 330 330 329 328 327 327 328
310 310 312 312 314 314 314 315 314 314 315 313 317 319 317 321 320 318 324 320 313 315 316 319 318 311 316 326 322 314 314 316 315 314 313 313 314 313 312 312 310 309 309 308 308 303 301 303 304 304 305 307 308 311 315 319 322 324 326 327 328 328 329 329 330 331 331 331 331 331 331 331 332 332 331 330 330 330 330 330 330 329 329 328 326 327
310 311 311 312 314 313 312 313 313 315 316 315 319 319 316 322 321 319 326 319 314 318 314 314 316 311 313 321 318 315 315 314 313 313 314 315 314 314 317 319 315 312 311 308 307 304 302 303 303 304 305 306 308 310 312 317 320 323 325 326 327 328 328 329 330 330 331 331 331 331 331 332 332 331 331 331 331 330 330 330 329 328 328 328 327 327
312 313 313 312 312 312 311 314 314 314 315 314 317 316 315 320 319 318 321 317 316 318 311 310 313 312 312 314 315 315 313 312 311 310 312 314 313 314 317 317 314 313 315 315 311 307 308 306 303 304 306 307 308 310 312 316 319 322 324 325 326 328 328 329 329 330 330 330 331 331 331 331 331 331 331 331 331 331 330 330 329 328 327 327 327 327
314 315 313 311 311 312 312 313 314 314 314 312 313 315 316 317 318 317 317 317 318 318 311 308 311 313 315 314 315 315 311 313 313 309 310 311 310 310 310 308 310 311 314 319 318 313 313 308 303 305 307 307 308 310 313 316 319 322 323 324 326 327 328 328 329 329 330 330 330 331 331 331 331 331 331 331 331 331 330 330 329 328 328 328 327 326
315 315 313 312 313 313 311 312 317 316 313 312 314 316 317 318 320 319 319 319 320 319 313 308 311 319 321 316 314 313 312 314 314 311 310 309 308 307 307 309 312 312 314 321 323 319 312 304 303 307 307 308 309 310 312 315 318 320 322 324 325 325 327 327 328 329 329 330 330 330 331 331 331 331 331 331 331 331 331 330 329 329 328 328 327 327
313 314 313 311 312 312 311 314 318 317 313 314 317 318 316 318 322 320 318 319 319 318 315 311 314 321 320 313 311 310 311 312 313 311 311 310 309 309 314 317 316 315 319 325 326 323 313 303 305 308 307 309 310 309 311 313 314 317 319 322 323 325 326 326 327 328 328 329 329 330 330 330 331 330 330 331 330 331 330 330 330 329 328 328 327 327
313 312 312 311 310 311 314 316 316 316 316 315 314 315 314 316 322 321 315 312 312 315 317 313 315 319 317 313 314 313 312 313 313 311 312 314 313 315 321 322 319 318 320 324 324 321 313 304 306 309 309 310 311 311 312 311 312 313 314 317 319 321 323 324 326 327 327 328 328 329 330 329 330 330 330 330 330 330 330 329 329 328 328 328 327 326
314 313 312 313 312 310 312 316 315 314 315 316 316 316 313 314 320 322 318 314 311 314 319 317 314 316 317 316 319 318 313 313 314 311 312 315 318 320 323 322 321 319 318 318 317 314 307 303 307 310 310 311 312 312 312 311 312 312 311 312 313 315 318 320 323 325 326 327 328 328 328 328 329 329 329 329 330 330 329 328 328 328 328 326 324 324
317 317 313 312 313 311 310 314 314 311 311 315 318 316 315 317 317 317 317 317 314 313 318 320 314 312 315 317 320 317 313 315 314 312 313 314 315 317 320 322 321 319 319 319 318 319 311 305 308 311 311 312 312 312 312 312 312 312 312 311 311 311 312 314 317 320 323 325 326 328 328 328 328 328 328 329 329 329 329 328 328 326 326 325 322 322
317 321 316 311 311 312 312 313 314 313 311 312 314 312 313 318 318 317 316 316 318 316 318 321 317 314 316 318 320 314 311 314 312 311 314 315 316 316 317 320 321 321 324 321 319 323 315 305 308 311 312 313 312 313 313 313 313 313 313 312 312 311 311 311 313 316 319 322 324 325 326 327 327 327 328 328 328 328 328 327 327 325 325 323 321 321
312 318 318 312 309 312 316 315 316 315 313 312 314 313 311 312 315 318 316 314 319 320 319 318 316 318 318 316 316 313 312 313 311 310 313 316 319 318 314 314 314 317 321 318 316 320 313 304 307 311 311 312 313 313 314 314 314 315 315 314 313 312 311 310 312 315 318 320 322 323 324 325 326 326 327 327 327 327 326 326 325 325 323 322 321 320
313 315 317 315 312 315 317 316 315 315 314 314 314 314 313 313 316 317 314 313 314 316 320 316 311 316 320 314 311 312 313 311 312 311 313 315 317 316 313 309 308 310 315 315 315 318 309 301 305 309 309 311 312 313 313 314 314 314 315 314 312 311 311 311 312 316 318 320 321 322 323 325 325 325 326 326 325 325 325 324 324 323 322 321 320 318
316 317 318 317 317 318 315 310 308 311 315 316 315 315 314 315 318 317 316 318 315 312 315 315 311 313 317 317 313 309 310 314 315 315 315 315 313 313 314 311 308 309 311 312 314 312 302 300 305 307 308 310 311 312 312 312 312 312 313 314 312 310 310 311 313 316 318 320 321 322 323 324 324 324 324 323 323 323 323 323 322 321 320 319 318 316
315 317 319 317 318 320 317 312 309 309 313 315 315 315 315 315 320 321 319 320 319 315 313 312 312 312 315 323 321 312 311 315 315 314 316 319 318 317 318 316 314 314 313 313 313 307 299 299 303 303 304 308 309 310 310 310 310 311 312 313 312 311 311 312 314 317 318 320 320 321 322 322 322 322 322 322 321 322 321 321 320 319 318 317 316 313
313 315 317 317 317 319 320 316 313 311 312 315 317 317 318 319 319 317 314 313 316 321 319 313 313 315 320 324 320 314 313 314 315 314 316 319 321 322 321 321 322 321 319 315 314 311 305 302 301 300 302 305 307 308 309 309 310 311 313 314 312 312 312 313 315 316 318 319 320 320 320 321 321 320 320 320 320 320 319 318 318 317 316 315 312 309
315 317 315 315 317 317 318 317 316 314 313 315 317 317 317 317 314 313 314 313 313 318 319 313 312 315 318 316 312 312 314 313 314 316 313 313 316 318 318 321 325 326 324 320 315 313 309 305 300 298 301 303 305 307 308 308 309 310 312 313 313 313 313 314 315 316 317 318 318 318 318 318 318 318 318 318 317 317 317 316 316 315 314 312 308 306
320 319 313 313 315 313 314 317 317 316 315 315 316 315 314 313 312 314 317 315 314 316 315 313 312 312 312 312 314 319 318 315 317 317 316 317 319 318 317 322 325 323 320 317 314 312 311 309 302 298 300 302 304 306 307 307 308 309 312 312 312 313 314 314 315 315 316 317 317 317 317 316 316 316 316 316 316 316 315 314 314 313 310 308 305 303
321 317 313 315 314 312 318 320 317 315 315 315 315 315 314 314 314 316 316 313 316 317 314 314 315 312 312 315 318 320 318 317 317 317 317 320 319 319 320 326 330 329 323 319 318 317 315 314 307 298 298 301 303 304 305 306 307 308 310 312 312 313 313 314 315 315 315 316 315 315 315 315 315 315 315 315 315 314 314 312 311 310 306 304 301 297
315 313 314 315 313 314 320 320 317 315 314 314 315 314 314 315 314 315 315 313 314 315 313 316 319 314 312 314 315 318 319 317 316 315 315 315 316 319 324 332 338 341 337 333 331 325 318 315 309 300 297 299 301 302 303 304 306 308 309 311 312 312 312 313 314 314 314 314 314 314 314 314 314 314 314 314 314 313 312 310 308 305 302 299 295 292
313 313 314 313 311 312 316 316 314 314 314 314 316 315 314 315 314 313 313 312 313 313 312 316 319 316 316 316 315 317 317 312 311 312 312 313 316 322 329 335 337 337 337 337 335 324 313 310 306 299 297 298 299 300 302 303 304 306 308 309 310 311 312 311 312 313 312 313 313 313 313 314 313 312 312 312 311 310 308 306 303 300 297 294 291 291
313 314 313 312 311 311 313 314 313 314 316 315 315 315 314 315 314 313 313 312 313 313 312 314 315 313 315 317 316 315 311 309 310 312 312 312 314 322 329 331 330 331 332 333 331 319 309 308 305 299 297 298 299 299 301 302 304 305 307 308 309 310 310 310 310 310 310 310 310 311 311 311 311 311 310 309 308 307 305 302 299 295 293 291 290 290
315 314 312 314 314 311 311 314 315 315 315 314 314 315 314 314 313 312 313 313 313 313 312 313 313 312 314 316 314 312 310 312 314 313 312 312 313 318 324 325 326 329 330 333 333 326 319 317 313 304 299 298 299 300 301 302 302 303 305 307 308 309 309 309 309 308 308 308 309 309 309 309 309 308 307 306 305 303 301 298 295 292 291 290 290 289
317 316 314 315 315 312 309 312 316 316 314 313 314 314 312 312 312 312 313 313 312 312 312 312 312 314 316 315 311 311 312 314 314 313 313 313 313 316 318 318 320 322 324 329 331 332 329 320 310 303 300 300 301 301 302 303 303 304 305 306 307 308 307 307 307 307 307 307 307 308 308 307 307 306 305 303 301 299 297 294 292 291 290 290 290 289
316 316 315 315 315 314 310 312 316 316 314 313 313 314 312 311 312 313 313 312 311 310 311 311 311 314 316 315 313 313 314 313 312 311 311 311 313 316 317 317 318 318 320 321 321 322 319 310 303 302 303 302 302 302 302 303 303 304 304 304 305 306 306 306 306 306 306 306 307 307 307 306 305 304 302 300 298 296 293 292 290 290 290 289 289 288
314 315 316 316 316 314 311 313 315 315 314 313 316 318 313 310 312 313 312 311 311 310 311 311 311 313 316 316 314 313 312 312 312 313 313 312 312 312 314 315 315 316 317 317 318 318 311 303 302 303 303 303 303 302 302 302 302 302 302 302 303 304 305 305 304 304 304 305 305 305 305 304 303 302 299 297 295 293 291 290 290 289 289 289 288 288
312 313 315 315 314 312 312 313 315 314 313 315 318 316 312 310 311 312 312 311 310 310 311 311 309 310 312 313 313 311 311 312 314 315 315 315 313 310 310 311 312 314 315 313 314 313 306 301 302 303 303 304 303 302 302 302 302 301 300 301 302 302 303 303 302 303 303 303 304 304 303 302 301 299 297 294 292 291 290 289 289 289 289 288 288 287
311 312 313 312 312 314 315 314 316 316 313 313 315 312 310 311 312 311 313 313 311 310 310 310 309 309 310 310 310 309 308 310 312 313 314 317 317 310 307 307 307 308 308 305 304 304 302 301 303 304 304 305 304 303 304 303 301 301 300 300 300 300 301 300 300 302 302 302 303 303 302 301 299 297 295 292 290 290 289 289 289 288 288 288 287 287
312 312 312 311 312 315 318 316 316 316 312 312 314 312 311 313 314 312 312 314 313 311 310 309 309 310 309 310 310 309 309 310 311 311 312 316 315 310 309 308 303 301 302 301 300 301 302 302 303 304 304 304 304 304 304 302 301 300 299 298 299 298 298 298 299 301 301 301 301 301 299 298 297 295 293 290 289 289 288 288 288 288 287 287 287 287
313 313 313 313 312 313 316 315 314 313 311 314 318 316 313 314 314 313 313 314 314 313 311 309 309 310 310 310 311 311 311 312 311 310 312 316 315 313 313 312 304 298 299 301 300 300 302 302 302 304 304 304 304 304 303 302 301 299 298 297 297 296 296 297 299 300 299 298 298 298 297 296 294 293 291 289 288 288 288 288 288 287 287 287 287 287
312 312 313 314 313 312 313 314 314 313 314 319 320 314 311 312 313 315 315 314 314 316 315 311 310 311 310 310 310 311 313 313 311 311 315 317 315 312 310 310 308 301 299 300 301 301 302 302 302 303 303 303 304 303 302 301 300 298 298 297 295 295 297 299 299 298 297 297 297 296 295 294 292 291 289 288 288 288 288 288 287 287 286 286 287 287
312 312 313 313 312 312 312 313 315 315 316 322 319 310 309 312 313 315 315 315 318 319 314 312 313 311 309 310 311 310 311 310 310 315 321 318 315 314 307 300 300 299 298 300 301 301 301 301 301 302 303 303 303 302 301 300 298 297 297 295 295 296 298 298 297 296 296 296 295 295 294 293 291 290 289 288 288 288 287 287 287 287 286 286 286 286
312 313 313 312 312 313 313 312 314 315 317 319 314 307 308 313 313 313 314 317 323 321 314 314 317 314 310 311 311 310 310 309 309 315 320 318 319 323 313 302 301 301 299 299 301 301 301 301 301 301 302 302 302 302 301 300 298 297 296 295 296 297 297 295 295 295 295 294 293 293 292 291 290 289 288 288 287 287 287 286 286 286 286 286 286 285
311 311 312 311 312 315 314 312 313 315 313 313 310 306 310 315 315 315 315 313 317 324 323 320 320 316 312 313 313 311 311 311 310 313 315 315 317 317 311 306 305 302 298 298 300 300 300 300 301 301 301 301 301 301 300 299 298 297 295 296 296 296 295 294 294 294 293 292 292 291 290 289 288 287 287 287 287 286 286 286 285 285 286 286 286 285
311 311 311 311 311 313 314 311 312 314 310 309 311 309 311 317 317 316 314 312 313 322 327 325 321 314 313 320 321 316 313 313 312 314 315 316 316 314 311 306 298 295 296 298 299 299 299 300 300 300 300 300 300 300 300 300 299 296 295 296 296 295 294 294 294 293 292 291 291 290 289 288 287 287 287 286 286 286 285 285 285 285 285 285 285 285
311 310 313 314 311 311 313 311 311 313 309 308 312 312 311 315 313 312 315 317 316 315 315 320 324 317 312 319 322 318 318 317 315 314 315 317 317 314 311 304 295 293 296 297 297 298 299 298 299 299 299 299 299 299 299 299 298 297 296 296 295 294 294 293 293 292 291 290 290 289 288 287 287 286 286 286 286 286 285 286 285 285 285 285 285 285
311 310 313 316 313 311 313 311 309 311 308 307 313 315 313 313 312 312 316 318 319 317 311 315 325 326 314 311 313 316 321 322 319 316 315 317 316 310 306 301 295 292 294 295 296 297 297 297 298 297 297 298 297 298 298 298 298 297 296 296 295 294 294 293 292 291 291 290 289 288 287 287 286 286 286 285 285 285 286 286 286 285 285 284 284 284
311 311 312 315 314 311 312 312 311 312 310 308 311 315 313 311 311 313 317 319 322 322 314 312 321 323 312 307 312 318 321 319 319 319 316 316 317 315 313 308 298 292 293 295 295 296 296 296 296 296 296 297 297 296 297 297 297 296 296 295 295 294 293 292 292 291 290 289 288 287 286 286 285 285 285 284 284 284 285 285 286 285 285 284 284 284
312 312 312 315 315 311 311 313 312 313 312 310 311 314 314 312 311 312 314 315 316 315 310 308 313 317 313 310 311 315 316 313 314 318 319 318 317 314 311 304 293 290 293 295 295 295 296 295 296 296 296 296 296 296 296 296 296 295 294 294 294 293 292 292 291 290 289 288 287 286 286 285 285 284 284 284 284 284 284 284 285 285 285 285 285 285
310 310 312 315 314 311 311 312 309 309 310 308 309 312 313 314 314 312 309 308 312 316 315 310 306 308 312 312 309 311 314 315 313 314 317 319 316 309 300 294 291 291 294 293 293 294 294 294 295 296 295 295 295 295 296 295 294 294 293 293 293 292 291 291 290 289 288 287 286 285 285 284 284 284 283 283 283 283 283 284 284 284 285 285 285 285
309 311 311 312 312 311 311 310 307 309 312 310 309 311 312 313 312 310 308 309 312 316 318 316 309 302 301 302 301 306 314 315 310 308 312 313 310 301 293 289 291 292 291 291 291 292 292 293 294 294 294 294 294 295 295 295 294 293 293 292 292 291 291 290 289 287 286 286 285 284 284 283 283 282 282 282 282 282 282 282 283 283 284 284 284 284
310 312 309 310 311 311 311 310 309 312 314 311 309 309 310 310 310 310 310 311 310 309 311 315 316 310 303 298 293 297 307 312 305 304 309 307 298 292 290 290 290 290 289 290 290 290 290 291 291 291 292 292 292 294 295 294 293 292 292 291 291 290 290 290 288 286 285 284 284 284 283 282 282 281 281 281 281 281 281 281 281 281 282 283 283 283
Wind_Speed
3 4 5 5 6 8 9 7 6 5 6 6 4 2 3 3 4 4 3 5 2 3 5 6 7 10 10 12 7 1 1 3 6 8 8 8 6 6 7 8 10 10 13 17 17 19 22 26 28 29 29 29 29 31 31 32 34 35 34 34 35 35 33 33 33 33 33 32 31 30 30 30 30 29 29 28 28 27 26 24 23 23 22 21 20 19
2 6 6 5 7 8 8 7 6 5 5 5 4 1 3 3 4 6 2 5 3 2 4 1 5 10 10 11 8 2 1 5 8 8 9 10 8 7 7 10 10 9 11 12 13 17 21 24 26 28 28 29 30 32 33 34 35 36 36 36 36 35 34 35 35 34 34 34 33 31 30 30 29 29 30 30 29 28 27 25 25 24 22 22 21 19
3 5 5 5 7 9 7 7 8 7 6 4 3 2 3 3 4 6 3 5 4 1 4 2 3 9 10 11 9 5 6 8 8 9 9 9 8 8 9 11 9 8 10 9 11 16 20 22 24 26 27 30 33 34 34 35 35 35 36 37 37 36 36 36 36 36 36 35 34 33 31 30 29 30 30 30 30 28 27 27 25 25 24 23 22 21
5 5 7 8 7 10 8 8 10 8 7 5 3 3 3 2 1 3 3 4 3 1 1 1 2 7 7 7 8 7 8 8 8 8 8 7 8 11 10 8 8 10 12 10 10 13 17 20 21 24 28 31 32 32 32 34 35 36 36 37 37 37 37 37 36 37 36 35 33 32 31 30 28 28 28 28 28 28 27 26 25 25 24 23 23 22
4 3 8 9 8 11 9 8 10 7 5 5 4 4 2 2 3 3 4 4 3 1 1 2 4 6 5 5 8 5 3 6 7 7 8 7 9 10 7 7 9 11 11 11 11 11 13 18 22 26 29 29 30 31 33 35 36 36 37 37 37 38 38 38 37 37 36 34 32 30 28 26 25 25 25 24 25 25 25 25 25 24 23 23 22 19
3 3 8 9 7 9 9 8 9 8 6 4 4 5 5 4 4 3 4 4 3 3 2 2 2 6 4 4 8 5 3 5 6 5 9 9 8 8 7 10 11 10 10 10 11 11 12 17 22 25 26 27 29 33 35 36 37 37 37 37 38 38 38 38 38 37 36 35 33 31 28 26 24 24 25 25 24 24 24 23 23 23 23 23 22 20
3 4 7 9 8 8 8 7 8 9 6 3 5 8 7 5 4 4 3 2 0 3 3 2 3 6 5 5 8 4 5 8 7 6 10 9 8 8 9 11 10 9 10 9 10 11 12 16 19 23 27 29 31 34 36 36 36 36 37 37 37 38 38 38 38 37 36 35 34 33 32 31 29 28 28 27 25 24 23 23 22 23 23 23 21 20
5 6 6 8 9 8 8 7 8 10 7 3 5 10 9 7 7 6 4 3 2 3 3 2 2 4 5 6 5 2 4 9 8 8 10 9 10 10 10 12 11 11 10 9 10 11 13 16 19 23 28 32 34 34 34 34 35 36 37 37 37 37 38 38 37 36 36 36 36 35 35 33 32 32 30 28 26 24 24 24 24 24 21 19 17 16
6 10 11 12 10 8 7 7 9 12 7 3 5 8 7 6 5 4 4 3 0 2 5 3 2 2 6 6 4 3 4 9 9 9 10 10 11 11 12 12 12 11 9 8 10 10 13 18 23 27 28 29 32 32 31 32 34 35 35 35 35 36 37 37 37 37 37 37 37 36 35 34 34 33 31 27 25 24 23 23 22 21 18 14 13 14
3 9 11 12 9 6 6 6 9 12 6 3 6 7 5 4 3 2 4 3 2 1 7 5 2 3 6 5 3 2 3 7 9 9 9 10 10 10 10 11 10 9 7 8 10 12 16 20 23 25 25 25 27 28 30 30 31 32 33 33 34 35 35 36 37 37 37 37 37 36 35 34 34 33 30 27 24 23 22 21 19 18 16 14 13 15
1 0 4 6 5 6 6 3 5 9 7 5 6 6 5 4 4 2 1 3 2 5 7 3 2 1 5 5 4 5 5 6 8 8 8 9 10 9 8 8 8 7 6 7 8 11 16 18 18 19 21 23 23 24 26 28 29 30 32 33 34 35 35 35 36 36 37 37 37 38 37 36 35 33 31 28 25 24 22 21 20 18 16 14 14 14
4 3 2 2 2 5 7 3 2 3 6 6 4 4 4 1 2 2 3 2 3 6 4 1 2 3 5 6 4 6 6 5 7 7 9 11 10 8 7 7 7 6 6 7 7 9 11 13 14 16 18 20 20 21 24 27 28 30 31 33 34 34 34 34 35 36 37 37 38 38 37 37 36 35 33 31 29 27 25 23 21 18 16 15 14 14
2 1 2 1 1 5 8 5 2 3 3 5 4 5 4 1 0 2 2 1 4 5 3 1 1 3 7 7 7 9 10 9 9 9 10 11 10 9 7 7 6 5 6 6 6 7 6 8 11 15 17 18 19 22 23 25 27 28 30 31 33 34 34 34 34 35 36 37 37 38 37 37 36 35 35 33 32 30 28 25 23 20 18 17 17 16
1 4 3 3 1 4 9 9 4 2 5 7 6 6 6 4 4 6 4 1 4 4 2 1 1 3 5 5 10 14 13 12 10 9 10 10 11 10 8 7 7 7 7 6 6 6 6 7 10 14 17 17 19 20 21 22 24 26 27 28 30 32 32 33 34 34 35 36 36 37 37 37 36 35 35 34 33 31 28 26 24 23 21 20 19 19
7 3 5 6 3 4 9 8 6 6 6 6 5 5 5 5 5 6 4 3 4 3 3 2 1 3 3 3 8 11 10 11 8 7 8 8 9 8 7 8 8 9 8 5 5 5 6 7 8 10 11 12 14 16 17 18 20 22 24 26 28 29 30 31 33 33 34 35 35 35 35 36 36 35 34 33 32 31 28 27 25 24 23 22 21 22
6 3 3 1 1 7 10 5 3 8 5 3 2 4 4 5 5 3 2 4 3 1 3 3 3 4 4 6 9 6 6 9 9 9 7 8 8 5 6 9 8 8 7 5 5 5 6 7 6 6 6 7 9 11 13 15 17 19 22 24 26 27 28 29 31 32 33 34 34 34 34 34 34 34 33 32 31 30 28 27 25 24 24 23 24 24
5 1 3 2 1 6 8 6 4 5 5 2 2 4 4 4 6 4 1 1 3 3 4 1 4 5 4 8 9 5 6 9 9 9 7 8 7 5 7 8 7 7 6 5 5 4 5 6 5 6 6 6 7 8 10 11 13 15 18 21 23 24 26 27 28 30 31 32 32 33 33 33 33 33 33 31 30 29 27 26 26 25 25 26 26 24
5 2 3 1 3 2 1 4 2 2 3 5 5 6 3 3 3 3 2 1 1 5 4 0 4 5 3 6 7 7 8 11 10 7 6 8 6 6 9 9 7 6 5 5 4 4 5 5 5 6 6 6 7 7 8 9 10 12 13 16 19 21 24 25 26 27 29 30 31 32 32 32 32 32 32 31 29 29 28 27 26 27 27 27 26 24
5 4 3 1 4 1 2 4 3 3 2 4 5 4 4 3 2 2 2 3 3 5 4 3 3 4 5 6 5 7 8 9 10 9 7 8 7 7 9 9 8 6 5 5 4 4 4 5 6 6 6 7 7 7 8 8 10 11 13 14 16 18 19 21 23 24 26 28 29 30 30 31 31 31 30 30 30 29 29 29 28 28 28 27 26 23
4 5 1 2 1 1 2 2 7 2 3 3 3 2 1 2 4 3 3 3 3 3 3 3 4 4 7 6 5 8 10 9 10 11 9 8 7 7 7 7 7 6 5 5 5 4 4 6 7 7 7 7 7 7 7 8 9 10 12 14 15 16 17 18 19 21 23 25 26 27 28 29 30 30 30 30 30 30 30 30 30 30 29 28 25 22
2 4 3 1 2 2 2 3 8 8 4 3 3 4 3 1 2 2 1 3 3 3 3 2 5 6 5 4 8 10 12 13 11 8 7 7 7 7 6 6 6 6 6 5 4 4 4 7 9 8 8 8 8 8 8 8 9 9 11 13 14 16 17 18 18 19 21 22 24 25 26 27 28 29 29 29 30 31 30 31 31 31 30 27 24 22
2 3 5 3 1 3 4 3 4 7 7 6 5 6 6 4 4 3 4 1 2 2 4 2 6 9 5 4 8 10 12 12 7 4 6 7 7 7 6 6 6 6 6 5 5 5 4 7 9 8 8 8 8 9 9 9 9 9 10 11 12 14 15 17 18 19 20 21 22 23 24 26 27 28 29 30 30 31 31 32 31 30 29 26 24 23
3 5 5 2 3 4 3 3 1 2 3 5 3 4 5 5 5 5 5 3 0 2 2 3 4 8 4 7 8 10 9 6 3 2 6 7 6 7 7 7 6 6 6 5 5 5 6 8 9 8 9 9 9 10 9 9 9 8 8 9 10 11 13 15 17 18 19 20 22 23 24 25 27 28 29 30 31 31 31 31 30 29 27 25 24 23
3 4 5 2 2 3 4 3 2 3 2 3 2 2 5 4 4 5 5 4 2 3 2 2 6 7 2 4 6 8 7 6 5 4 6 7 6 6 6 6 6 5 5 4 4 4 5 7 7 8 9 10 11 11 10 10 9 8 8 9 9 10 12 14 16 18 20 21 22 23 24 25 27 28 29 30 31 31 31 30 28 27 25 24 25 24
3 3 5 4 2 3 4 4 2 2 1 3 2 3 5 6 7 5 3 3 2 6 7 4 9 8 4 2 2 4 6 8 8 6 6 7 6 6 6 6 5 5 5 4 4 4 4 5 6 8 10 11 12 12 12 11 11 10 11 11 10 11 12 14 16 19 20 22 23 24 25 26 27 28 29 30 30 29 29 28 26 25 24 25 25 25
4 4 5 7 7 7 7 5 6 4 2 2 3 7 8 10 11 7 4 4 8 7 9 8 11 7 2 4 4 4 5 7 8 5 4 6 6 6 6 6 5 5 5 5 5 4 4 4 6 9 12 13 14 14 14 14 13 12 12 13 13 13 14 15 17 19 20 22 23 24 25 26 27 28 29 29 28 27 26 25 24 25 25 25 27 28
3 3 5 8 10 12 11 6 5 10 8 7 8 10 10 10 11 8 5 7 8 3 6 12 13 8 3 4 6 5 5 7 7 5 5 5 5 6 6 5 5 4 5 5 5 5 5 6 7 10 13 15 15 16 16 15 15 14 14 15 15 15 15 16 17 19 21 22 23 24 25 26 27 27 27 26 25 23 22 23 24 25 26 27 30 33
4 4 9 11 13 10 5 3 8 14 14 15 12 11 10 9 10 9 9 13 6 3 8 10 7 9 8 3 6 7 6 7 7 6 6 5 5 5 4 5 5 5 5 5 6 6 6 7 8 10 14 16 17 17 17 16 16 16 16 16 17 17 18 18 19 19 21 21 22 23 24 25 24 24 24 23 22 21 22 24 26 27 29 31 34 35
6 9 11 13 14 5 5 4 9 12 10 9 11 12 12 11 13 14 18 18 9 6 15 8 8 11 10 5 7 8 7 8 7 5 5 5 6 5 4 6 6 7 7 7 8 8 8 9 8 9 13 16 17 17 17 17 18 18 19 19 19 18 19 20 21 22 22 22 22 22 22 22 21 22 22 21 22 23 25 27 28 30 32 34 35 35
5 7 6 9 9 2 6 2 7 9 6 6 9 12 12 13 17 20 22 20 12 15 19 7 3 9 6 6 9 9 7 5 4 5 5 6 7 5 3 5 7 8 9 9 9 8 8 9 8 10 13 15 18 19 19 20 21 21 21 21 21 21 20 21 23 24 24 24 24 23 23 23 22 22 22 23 25 27 29 30 31 33 35 35 35 34
1 3 2 5 5 3 4 2 4 5 7 6 7 10 12 16 19 20 19 12 8 16 17 7 10 12 5 7 10 8 4 2 4 8 7 7 7 4 4 7 8 9 10 9 9 7 7 8 8 10 13 17 20 21 22 23 23 23 23 23 23 23 22 22 22 23 24 24 24 24 24 24 24 23 24 25 27 29 31 33 34 35 35 35 34 33
3 2 3 6 5 3 2 5 6 6 6 3 5 10 16 18 16 14 12 10 11 16 13 8 12 10 5 7 9 6 4 6 9 10 8 7 7 6 7 9 9 10 10 9 8 7 8 9 9 11 15 19 21 23 24 24 23 24 26 26 26 25 24 23 23 22 22 22 22 23 23 24 24 25 26 28 30 31 34 35 36 36 35 35 34 33
6 5 2 5 7 3 2 5 7 7 6 1 9 15 19 16 11 9 10 12 15 13 9 11 13 7 4 6 7 5 7 10 11 10 9 9 8 7 9 10 10 11 10 9 9 9 9 10 11 15 18 20 22 24 26 26 26 27 28 27 26 25 25 24 24 24 24 24 24 24 25 26 27 28 29 30 32 34 36 37 37 37 36 35 34 33
7 7 4 5 5 3 2 5 7 5 5 11 12 13 16 15 14 14 15 17 17 14 12 13 11 4 4 6 8 10 12 12 10 9 8 7 7 9 10 11 11 11 10 10 10 9 9 10 12 16 18 19 19 21 22 24 26 26 25 25 26 26 26 25 25 25 25 26 26 27 27 29 30 30 31 33 35 36 38 38 38 37 36 36 35 34
12 9 4 4 4 3 4 6 6 6 13 12 5 5 12 16 20 21 20 19 17 16 16 15 12 7 8 9 11 12 11 8 6 7 7 7 8 9 10 11 11 11 11 10 10 10 11 12 14 16 15 15 16 16 18 22 24 23 22 24 25 26 27 27 27 26 27 27 28 29 30 31 32 33 34 35 37 38 39 39 39 38 37 36 35 34
15 10 4 3 4 3 4 7 8 8 7 7 5 1 6 11 13 14 15 14 11 11 13 16 18 14 12 11 10 6 3 3 5 5 8 8 9 10 11 11 11 10 11 11 11 11 12 12 13 14 13 13 13 15 19 21 23 23 23 24 25 27 28 28 28 28 29 29 30 32 33 34 34 35 37 38 39 40 40 40 39 38 37 35 34 33
12 11 7 3 2 3 5 5 4 4 6 8 8 4 6 8 9 10 8 10 11 13 14 16 17 15 14 14 10 3 3 4 7 8 7 9 12 12 11 10 10 10 11 13 15 14 13 12 12 11 12 12 13 16 19 21 23 24 25 25 26 27 27 28 29 30 32 33 34 34 35 36 37 38 39 40 41 41 40 40 39 38 37 36 34 33
6 8 9 7 3 3 5 2 2 3 9 12 7 6 9 9 10 12 7 8 11 14 15 16 15 14 14 13 7 5 6 1 9 9 7 11 14 10 8 11 13 14 16 16 16 16 15 14 12 11 11 12 14 16 18 20 23 25 25 26 27 28 28 29 31 33 35 35 35 35 35 36 38 39 40 41 41 41 40 39 39 38 36 36 35 33
5 3 6 7 3 4 6 5 6 8 11 9 6 8 10 11 13 12 3 8 10 12 14 15 14 13 13 10 7 9 6 6 9 8 9 11 11 8 9 11 12 14 17 16 15 16 16 14 11 10 10 12 15 16 17 20 23 25 25 26 27 27 28 31 35 35 35 33 33 33 34 35 36 37 39 40 39 39 39 38 38 37 35 34 34 33
6 2 4 6 4 6 7 5 4 5 8 8 8 10 10 12 15 12 1 9 8 10 12 13 13 13 13 9 7 8 8 8 8 8 9 7 5 6 9 10 10 11 12 12 12 14 14 13 11 11 12 14 14 14 16 20 22 24 25 24 25 27 31 35 35 33 31 31 31 32 33 34 35 36 37 38 38 38 38 38 37 36 35 33 33 32
4 2 3 7 7 7 8 6 4 4 7 8 8 10 13 12 11 8 9 8 7 9 9 11 12 12 10 9 8 7 9 11 8 7 4 2 2 6 8 9 10 10 9 9 9 9 11 11 11 11 11 12 11 12 15 19 21 23 23 21 24 30 33 31 28 27 28 29 30 32 34 35 37 37 38 38 38 38 38 38 37 37 35 34 32 31
7 5 3 6 8 5 4 4 2 6 8 8 6 6 10 10 6 8 8 4 7 9 7 8 10 9 8 10 9 9 9 8 6 7 6 3 4 6 6 6 8 8 7 6 5 5 7 8 9 9 10 9 9 11 14 18 21 21 21 22 27 30 28 24 23 24 26 27 29 31 33 34 36 37 37 37 38 38 38 36 36 36 35 34 32 31
10 9 6 6 6 3 2 5 3 7 7 14 14 3 6 7 8 7 4 3 2 7 8 7 8 8 9 10 10 10 8 6 6 8 8 7 6 6 5 6 6 6 5 3 2 3 5 7 8 9 9 9 9 11 14 18 21 21 21 24 27 25 21 20 22 23 25 26 28 29 31 32 33 34 35 35 36 37 37 35 34 34 34 33 33 31
7 9 8 8 7 6 7 9 6 4 5 16 17 9 8 7 5 6 8 3 2 4 7 6 6 7 10 10 9 9 9 7 6 7 7 8 8 7 6 7 6 5 5 4 3 3 5 7 8 7 8 8 9 11 15 19 20 21 22 24 22 19 19 20 21 23 25 27 28 29 30 32 33 33 34 35 35 36 36 35 34 34 33 33 33 32
9 8 6 5 6 6 7 7 4 1 5 10 9 7 10 9 4 3 9 7 4 5 5 6 7 9 10 9 8 8 7 7 7 7 7 8 8 6 5 6 5 4 4 5 4 4 5 7 6 6 8 8 9 11 15 18 20 21 21 21 18 18 19 20 21 23 26 27 29 30 31 32 33 34 35 36 37 37 38 37 37 36 35 34 34 34
4 3 3 3 2 3 4 5 3 1 3 6 1 1 7 10 5 2 5 6 6 6 7 6 7 9 9 8 7 6 7 8 7 7 7 7 6 5 5 4 4 4 5 5 5 4 5 6 6 7 8 8 9 11 13 16 19 20 20 18 17 18 19 21 22 24 26 28 29 30 32 33 33 34 35 36 37 38 39 40 40 38 37 36 35 34
2 3 3 3 4 5 6 6 6 3 5 8 4 3 3 6 4 3 5 5 5 7 8 7 5 7 8 8 8 8 8 7 7 6 6 6 6 6 5 5 5 5 5 5 5 4 6 7 7 7 8 8 9 10 11 14 17 18 18 16 16 18 19 21 23 25 27 29 30 30 32 34 34 34 35 35 36 37 37 39 40 39 39 38 36 34
3 5 5 3 6 7 5 5 5 5 6 9 7 4 3 5 6 5 3 2 2 3 4 3 4 6 7 7 8 9 7 6 7 7 6 5 6 6 5 5 6 6 5 5 5 5 6 7 7 7 8 9 9 8 9 11 14 16 16 15 16 17 19 21 24 26 27 29 30 31 32 34 35 36 36 37 38 38 38 39 39 40 40 40 39 37
5 7 7 6 6 4 4 3 5 3 3 7 7 6 5 6 8 8 4 3 2 2 3 3 2 4 6 6 6 7 6 6 7 7 6 6 5 4 4 5 6 6 5 5 4 5 6 6 7 8 8 9 8 7 8 10 12 14 16 16 16 18 20 22 24 25 26 28 29 31 32 33 35 36 37 38 38 38 38 39 40 40 39 38 39 38
7 8 6 6 7 8 8 7 9 6 3 7 8 10 11 8 8 8 5 4 5 5 6 5 3 3 4 3 4 6 6 5 4 4 4 3 2 2 3 3 3 4 4 3 4 5 6 6 6 7 8 8 7 6 6 9 11 13 15 16 17 18 20 22 24 24 26 28 29 31 33 33 34 35 36 37 37 36 34 34 35 36 36 35 35 35
7 9 9 9 10 11 8 10 10 7 6 8 10 13 13 8 7 9 9 9 9 6 6 6 5 5 5 4 3 5 5 3 3 4 3 1 2 1 1 1 1 1 1 2 3 4 4 5 6 7 8 7 6 4 5 8 10 12 14 15 16 18 21 23 24 25 26 28 30 32 33 33 34 35 35 35 36 35 33 31 30 32 32 32 32 32
Wind_Direction
138 156 193 192 180 176 181 178 156 152 145 137 133 155 241 264 278 267 275 312 339 156 234 211 226 248 251 261 255 108 62 230 250 254 249 251 239 232 232 234 237 233 242 249 247 246 243 239 236 232 230 230 231 232 231 231 230 230 229 229 230 230 230 230 230 231 231 231 231 233 234 235 237 240 242 245 246 247 248 248 247 246 247 246 248 253
150 185 194 177 165 163 169 165 149 151 133 122 134 175 276 245 259 274 279 318 335 180 267 257 236 258 257 264 263 163 213 251 233 234 245 242 236 235 235 238 239 241 254 256 251 245 241 239 236 232 230 228 228 230 229 229 230 230 229 229 230 230 229 230 230 230 231 231 231 232 233 235 237 240 242 244 246 247 248 248 247 245 246 248 251 255
186 205 185 162 154 146 152 160 167 188 176 157 137 131 265 261 279 289 300 333 356 173 284 345 227 261 262 263 264 207 215 248 228 222 235 232 233 236 231 237 240 247 259 253 245 243 237 235 232 229 228 227 228 229 228 228 229 228 228 228 229 229 229 230 230 231 232 234 235 236 238 239 241 244 246 247 248 249 247 246 245 245 248 251 253 254
186 212 181 164 148 142 155 166 170 195 204 191 157 144 239 280 313 306 333 343 354 124 269 332 268 273 268 273 275 231 214 250 249 234 241 231 229 236 236 239 231 234 247 248 245 242 236 233 228 225 226 227 227 226 226 226 227 226 227 227 228 228 229 230 231 232 233 235 237 237 239 241 243 246 249 249 247 246 246 245 244 245 249 253 256 253
170 185 162 148 147 149 156 172 172 187 210 207 187 165 194 246 235 268 318 316 315 8 51 9 321 286 264 268 272 256 215 258 264 256 260 251 237 247 265 257 233 228 236 240 242 239 230 227 226 225 226 227 224 223 225 226 225 225 226 228 228 228 229 230 231 233 233 232 232 232 232 234 237 240 242 241 240 240 241 243 243 246 250 254 257 253
190 179 150 140 156 157 158 180 182 180 192 221 209 174 184 229 253 292 323 341 5 337 343 26 297 274 295 281 252 267 327 275 270 266 258 257 250 248 257 252 241 237 237 235 242 243 230 225 227 228 227 225 223 225 228 228 227 226 227 229 228 228 229 230 232 232 231 229 227 225 223 224 226 230 233 234 235 237 239 241 243 247 252 254 254 253
183 163 147 146 158 158 168 195 192 173 170 227 204 170 185 223 254 271 282 326 357 268 308 65 214 260 309 288 247 272 322 284 279 275 260 259 257 242 239 246 242 239 238 234 239 243 235 226 224 226 226 223 224 230 231 228 227 226 228 229 228 228 229 230 231 230 229 227 226 225 224 225 224 227 232 235 237 239 241 242 245 248 251 253 249 249
147 138 147 153 156 166 187 200 189 173 166 214 180 156 174 204 232 238 224 225 237 277 316 30 157 257 279 261 256 325 318 290 285 275 266 258 251 244 239 243 241 236 233 231 235 236 235 229 223 225 227 226 228 232 230 227 226 226 227 228 228 228 229 230 229 229 228 227 225 225 225 227 227 230 234 236 236 238 240 242 247 250 252 255 247 240
147 164 180 170 169 186 191 179 171 168 172 217 150 138 162 180 202 202 176 207 283 3 296 280 138 238 263 271 310 351 270 274 280 270 264 256 246 242 241 242 242 241 237 232 236 235 234 230 228 230 231 232 232 231 229 228 227 227 226 226 227 228 228 228 228 228 228 228 228 226 225 226 228 232 234 234 235 235 239 243 246 250 250 252 247 236
178 190 183 167 179 192 165 153 164 165 175 195 124 99 84 87 86 118 153 161 76 307 251 234 184 235 262 273 304 316 242 252 265 264 258 255 251 243 245 249 250 253 248 238 239 241 239 235 234 235 236 236 234 231 231 230 228 227 226 225 225 226 227 227 228 227 228 228 227 225 224 225 227 229 230 230 231 232 235 239 240 244 243 241 242 237
312 258 157 162 189 180 149 132 161 162 155 135 108 79 67 59 40 44 72 94 104 260 255 224 168 214 272 272 228 218 221 216 234 257 262 260 259 254 250 255 258 262 261 254 252 253 249 246 241 238 236 236 235 233 232 230 228 226 225 225 225 226 226 226 226 226 227 227 226 225 225 226 226 227 226 224 225 226 228 231 235 238 237 236 239 234
19 68 154 208 188 142 134 108 52 124 138 129 110 106 108 48 17 24 5 52 192 251 285 314 108 153 240 258 232 239 255 227 217 240 256 259 263 266 264 263 262 264 273 275 268 263 259 252 242 234 232 233 230 228 227 226 226 224 224 224 224 225 225 225 226 225 226 226 225 226 225 226 227 226 225 224 224 225 225 227 231 230 226 227 228 225
26 186 221 289 273 152 147 147 49 43 131 147 134 131 134 95 25 228 269 258 230 254 296 297 130 200 240 252 256 265 273 259 233 225 240 254 262 269 271 271 272 272 279 281 271 264 260 248 237 229 227 226 223 223 224 223 223 222 222 221 221 223 224 224 225 225 225 225 225 226 225 226 227 226 227 227 227 227 226 226 226 221 217 215 214 216
195 291 252 161 233 190 165 166 171 173 176 172 162 156 160 152 171 209 214 249 256 256 271 255 205 262 275 266 244 244 252 257 247 231 233 245 254 263 274 283 285 281 275 270 266 262 253 245 237 228 224 223 222 221 222 221 221 220 220 220 220 223 223 223 224 225 225 225 226 227 227 227 227 226 227 228 228 228 228 227 226 223 219 215 216 216
167 234 216 177 193 185 174 180 169 143 160 182 163 145 166 170 173 194 194 212 238 258 281 276 216 215 213 258 242 233 254 274 272 254 246 251 256 263 281 284 279 276 271 258 254 257 257 257 248 234 225 221 220 219 219 219 220 220 220 220 221 222 223 223 223 224 224 226 227 227 228 228 227 228 228 228 229 229 228 227 225 224 221 219 219 215
166 232 256 206 196 164 167 184 131 118 146 213 134 129 194 188 145 128 180 185 174 245 258 226 232 217 207 280 277 247 264 280 273 267 264 261 263 266 275 272 266 267 268 256 250 257 267 270 261 243 223 211 209 210 214 218 220 221 222 222 223 224 225 224 224 224 225 226 227 227 227 228 228 228 228 227 226 227 227 227 225 222 219 217 215 210
162 256 324 11 107 166 168 172 159 157 172 162 148 183 197 151 123 118 211 71 88 229 247 199 255 286 313 292 291 293 283 279 270 267 266 264 271 278 268 264 260 260 260 256 248 249 268 278 268 248 227 212 208 209 215 218 221 224 225 225 226 225 225 224 225 225 226 227 227 227 227 227 227 226 225 225 224 223 223 223 221 218 214 211 208 206
152 114 326 57 130 209 196 130 92 10 138 138 184 199 140 97 106 117 183 357 94 230 264 325 245 282 295 269 309 331 286 272 273 269 267 272 275 269 261 259 262 263 261 265 261 256 270 275 260 243 229 224 223 224 225 224 226 228 229 229 229 228 227 227 227 226 227 227 227 227 227 226 226 225 224 224 223 222 219 215 214 212 208 204 202 202
132 108 311 298 141 223 6 113 125 352 46 137 181 193 139 148 201 130 168 193 182 231 274 312 279 268 224 229 308 310 261 261 283 288 283 275 262 254 261 266 272 274 267 262 255 252 260 256 244 232 225 227 228 230 232 231 234 234 235 236 234 234 233 231 230 229 228 227 227 228 227 225 224 223 222 221 219 218 215 212 209 206 203 201 199 200
131 121 244 292 137 152 48 143 186 199 23 66 114 175 160 154 177 171 164 169 174 219 254 304 312 262 224 207 217 255 260 256 264 272 273 271 262 254 260 271 280 279 264 252 239 236 241 235 229 218 217 223 224 228 233 236 241 241 241 241 239 238 236 233 232 229 227 226 225 225 224 222 220 219 218 217 215 214 212 209 205 200 199 198 197 199
122 114 159 223 359 167 181 211 188 171 154 148 147 174 192 137 129 159 158 132 138 178 203 281 289 260 243 206 191 220 253 255 252 262 264 266 271 267 268 279 287 282 268 259 242 234 237 232 223 212 213 219 220 227 232 236 242 243 242 241 238 237 234 231 230 227 226 224 221 221 220 218 216 215 214 214 212 210 207 203 199 197 196 195 196 200
136 109 132 139 129 178 222 255 189 177 177 170 174 187 179 145 124 167 232 245 92 172 180 191 272 268 241 199 201 210 231 251 274 298 272 267 275 284 296 295 287 282 270 261 248 238 242 237 226 215 215 219 223 230 234 237 240 241 243 243 240 236 233 229 225 221 220 220 218 217 217 215 213 211 210 208 206 203 200 197 195 194 193 193 196 198
126 106 110 139 197 200 249 294 233 218 164 133 171 192 156 146 143 162 220 243 122 232 149 107 278 275 215 178 209 226 237 267 311 303 278 283 279 283 299 300 292 286 272 261 248 235 237 236 229 222 221 222 226 232 235 236 238 242 246 247 243 236 229 226 220 216 214 213 212 211 210 210 208 206 204 201 198 196 194 193 191 191 192 193 194 193
134 112 101 64 304 300 312 335 16 5 53 125 214 154 139 165 149 141 184 184 186 223 147 95 269 270 241 171 208 239 266 290 278 250 262 278 284 283 288 295 297 290 282 274 261 248 243 239 232 227 226 224 225 229 234 234 233 235 235 234 234 228 221 218 213 209 207 205 204 203 203 204 201 198 197 194 192 191 190 189 188 188 191 193 191 188
168 141 122 110 67 359 338 332 307 282 199 192 193 144 151 143 116 119 141 123 228 220 163 184 254 255 269 295 266 273 291 285 271 254 235 251 280 293 287 293 303 302 296 283 272 272 264 248 238 234 231 227 225 226 229 229 225 225 225 222 220 216 213 211 207 203 201 199 198 197 197 197 195 192 191 189 188 187 186 186 186 188 191 191 188 182
163 155 150 147 149 173 193 215 222 195 167 196 172 172 178 155 148 160 132 153 231 218 162 198 242 243 288 325 325 328 309 283 276 275 245 241 260 273 279 291 302 301 290 277 275 277 270 258 245 239 235 230 228 226 224 224 220 219 221 217 213 211 208 205 202 199 198 196 195 194 192 191 189 187 186 184 183 182 183 186 188 190 190 188 183 175
118 154 186 180 185 192 190 187 142 124 144 195 188 177 182 173 168 158 133 196 219 182 186 222 236 240 277 320 309 307 287 267 269 281 282 268 257 260 269 279 283 278 274 272 268 262 262 257 244 239 237 232 230 228 226 224 219 216 218 215 210 208 206 205 203 199 196 195 193 191 189 187 184 183 183 182 183 185 189 192 193 190 187 184 178 171
106 191 201 198 211 207 166 131 131 139 174 194 178 170 177 172 170 167 197 216 180 117 238 228 209 234 242 246 269 271 260 260 261 256 265 277 274 274 286 295 292 282 275 268 259 250 247 247 241 237 236 233 230 229 226 224 220 216 217 216 212 209 205 205 207 203 197 194 192 189 187 186 185 185 187 188 191 196 197 194 191 188 182 177 173 170
154 204 201 195 211 207 77 119 156 157 180 178 164 178 177 170 178 190 215 220 177 198 243 210 164 226 231 205 237 247 239 248 252 247 261 284 291 305 324 315 301 287 275 261 250 241 235 239 240 232 234 233 230 228 224 221 218 215 214 214 212 212 210 206 205 204 201 198 197 195 192 192 193 192 193 197 198 198 195 190 186 181 176 172 171 169
167 199 193 181 190 81 48 125 161 153 152 145 170 185 174 178 194 202 218 221 203 228 243 228 218 255 233 206 236 244 237 239 255 271 278 280 284 300 308 285 274 266 262 252 246 240 231 236 237 231 233 230 226 224 220 217 216 214 212 211 210 211 212 209 205 203 202 201 203 203 202 202 201 199 199 199 197 192 189 185 180 175 172 170 170 169
164 180 91 121 138 29 23 79 97 121 142 156 187 191 184 197 206 213 223 219 212 242 250 272 288 273 227 208 237 252 271 274 261 263 260 252 254 252 245 251 250 251 253 250 249 242 229 232 233 230 231 230 225 221 218 218 216 213 213 213 211 210 210 210 208 205 202 200 200 200 200 199 198 199 199 196 192 188 184 180 175 172 171 170 170 170
117 139 53 99 142 259 321 99 89 76 91 124 216 209 202 205 208 216 223 205 207 233 240 255 267 256 198 208 230 244 272 269 261 263 262 250 230 210 227 245 249 253 256 257 258 249 234 230 227 225 229 229 225 221 219 217 213 213 214 212 211 210 208 208 209 208 205 202 201 199 197 198 197 196 195 192 188 185 180 176 173 172 171 171 171 172
124 130 109 130 162 240 332 118 120 88 74 235 236 216 204 203 204 214 230 221 217 222 220 230 241 227 170 195 211 222 238 242 246 248 250 252 235 217 232 243 247 251 252 254 254 248 241 237 230 230 232 231 227 223 222 217 214 217 217 212 209 208 206 206 206 207 207 206 205 204 202 201 197 194 192 189 185 181 177 175 174 173 173 173 173 174
150 151 155 150 159 196 182 132 109 102 202 228 225 200 187 186 191 205 223 223 214 210 217 232 239 208 146 175 195 210 221 223 231 237 241 243 231 230 238 239 243 249 249 251 252 249 251 248 244 243 242 241 237 232 227 222 220 222 219 212 209 207 205 204 202 203 205 204 204 204 202 199 195 192 190 186 183 179 177 176 176 175 175 175 174 175
170 169 163 145 137 154 160 132 126 196 225 232 231 172 176 185 191 204 220 222 213 213 224 239 244 213 185 200 208 212 220 231 253 257 250 236 220 226 237 237 238 243 246 251 252 252 253 250 250 252 252 250 246 236 229 224 221 220 216 211 209 206 205 204 202 202 204 203 203 202 199 197 194 191 189 185 182 180 178 178 177 176 177 177 177 177
171 169 153 128 125 130 148 164 185 221 253 276 300 272 185 189 189 202 231 241 226 213 219 233 238 229 216 223 226 214 211 297 310 267 242 239 229 226 232 235 234 232 237 243 244 246 252 255 257 260 258 253 244 232 227 224 218 213 211 209 208 206 205 203 202 203 204 204 204 203 200 198 194 191 188 184 182 181 180 179 178 177 177 177 177 177
171 163 147 141 157 139 147 190 230 310 308 268 254 218 173 174 169 177 223 250 228 206 210 225 232 232 231 233 232 194 83 7 307 270 240 242 240 230 228 238 241 238 239 244 248 254 265 271 271 266 257 248 239 232 228 221 213 208 206 205 204 204 203 202 203 205 206 207 206 204 202 198 194 191 187 185 183 182 181 180 179 179 179 178 177 176
161 161 158 166 183 106 113 164 245 264 253 243 224 164 157 161 157 157 185 250 229 202 207 220 223 225 232 234 216 126 93 277 268 263 242 240 243 239 235 243 246 246 248 252 258 264 271 274 275 270 257 242 237 235 227 217 210 204 202 202 202 201 200 202 206 209 209 208 207 204 202 199 195 192 188 186 185 183 181 181 180 180 180 180 178 176
108 107 139 144 147 137 146 172 189 211 239 237 188 163 162 154 139 124 122 268 235 192 195 210 215 216 225 225 180 134 141 225 251 259 247 236 236 232 233 243 248 250 254 259 264 269 274 277 274 263 248 238 237 234 222 213 207 201 200 202 201 198 200 206 211 212 210 208 207 204 202 199 195 193 189 187 186 184 183 182 181 181 181 181 180 178
119 109 129 140 165 178 172 185 205 226 244 228 189 177 166 147 128 114 165 261 218 173 181 194 201 211 212 199 161 149 180 216 236 251 242 224 223 231 232 241 251 256 262 267 267 269 272 269 256 244 237 237 240 234 219 210 204 201 203 203 199 201 208 213 215 213 210 209 207 204 202 199 196 195 192 189 188 186 185 184 183 182 181 180 180 178
133 169 177 176 186 185 182 200 237 257 240 218 194 177 157 132 120 152 214 227 174 163 179 178 189 207 196 164 153 179 211 220 231 260 257 167 193 243 241 245 253 260 270 276 276 271 264 255 246 241 243 245 243 233 217 206 201 203 204 202 204 211 217 218 216 212 210 209 207 204 203 201 199 197 194 192 190 188 186 186 185 184 182 180 179 177
171 178 189 184 180 177 188 194 251 275 234 180 155 180 165 144 165 207 208 169 142 161 176 175 185 194 174 165 182 204 219 220 227 261 269 219 213 248 265 269 269 271 273 281 289 273 252 245 239 235 242 247 241 230 216 205 203 205 204 207 215 220 221 218 216 214 211 208 206 205 203 200 199 198 195 194 191 188 187 186 185 185 182 180 179 177
173 166 180 191 172 140 164 174 198 265 224 140 124 167 224 190 192 188 134 64 136 155 156 177 192 178 165 179 202 215 222 216 214 240 258 255 246 257 269 269 270 276 283 291 299 255 230 227 228 228 234 239 234 224 213 206 206 205 207 215 223 224 221 219 217 213 209 207 205 204 202 200 199 197 196 194 192 189 187 185 184 184 183 182 180 179
181 175 181 198 190 171 183 192 197 238 180 143 143 174 212 203 186 150 132 133 246 172 155 179 198 185 177 183 195 208 218 224 227 237 252 258 256 252 254 259 260 264 271 261 252 243 224 219 222 222 222 226 224 217 212 209 207 207 212 221 226 223 218 217 214 209 206 206 204 202 201 200 199 198 197 195 193 191 188 186 185 184 185 185 183 182
208 194 168 181 196 186 189 201 208 197 175 169 160 166 179 184 206 166 143 148 196 205 174 176 192 194 191 183 178 187 205 217 220 217 222 241 250 240 240 259 258 246 246 242 237 240 228 220 219 215 212 216 217 214 214 213 211 212 218 224 225 220 216 213 209 206 205 204 203 202 201 200 199 200 199 197 195 193 190 188 187 185 185 186 186 186
218 176 122 136 194 257 255 213 182 35 204 198 214 13 181 186 205 205 157 159 181 185 177 182 187 186 186 176 160 176 208 210 204 208 219 239 258 247 233 249 252 234 229 224 220 222 218 214 216 213 210 212 215 215 216 217 217 219 224 226 223 219 216 211 207 205 203 203 203 202 200 199 199 199 199 198 197 196 195 192 190 188 187 187 188 189
279 169 139 135 165 204 232 205 166 157 200 204 228 299 229 197 197 189 178 184 189 181 186 193 165 147 162 171 172 193 208 194 186 207 222 231 243 240 226 227 230 226 220 216 215 213 207 208 211 212 214 218 217 215 218 221 223 226 228 228 224 219 215 211 207 205 203 202 202 201 200 199 198 197 197 198 197 196 196 195 194 192 190 189 190 191
209 163 160 177 175 183 212 205 173 178 204 206 210 222 205 192 203 210 194 151 140 153 175 177 129 131 156 174 184 197 200 183 187 201 208 216 228 226 212 210 215 217 217 215 214 213 213 215 215 216 223 225 217 214 220 224 227 228 228 229 227 219 214 211 208 207 205 203 202 201 200 200 199 198 197 197 197 197 197 196 196 195 195 195 195 195
140 158 177 177 169 195 259 219 150 133 240 237 231 235 233 213 206 210 194 114 115 142 149 143 121 143 165 170 171 182 197 208 206 198 196 208 214 206 203 208 208 212 217 217 217 220 224 230 231 228 230 228 215 209 218 226 229 230 230 230 228 220 214 210 208 207 205 204 202 202 201 200 200 200 198 197 198 199 199 199 199 199 200 201 201 201
146 166 170 149 170 211 229 193 152 137 201 229 222 223 228 217 193 189 182 184 214 205 167 148 111 89 107 120 139 162 191 223 216 188 194 218 221 215 221 214 205 213 218 214 219 225 227 235 242 240 237 231 215 205 218 230 232 232 232 231 227 221 216 210 206 205 205 205 204 203 202 201 201 201 201 199 198 198 199 201 202 202 202 203 203 204
179 176 163 163 198 214 196 168 165 164 186 205 205 208 211 193 165 177 195 210 219 204 160 155 151 119 94 71 99 147 164 182 178 168 179 282 318 327 350 6 347 312 282 231 230 239 242 244 245 245 244 237 223 214 225 235 237 235 234 232 228 223 219 214 208 205 206 207 207 206 204 203 202 202 202 201 200 198 197 198 202 205 206 206 206 206